Voltar ao catálogo

CZ-6A DEB

AtivoPO
NORAD 61098·DEBRIS·🇨🇳 China

Lançado Aug 6, 2024 de Taiyuan Satellite Launch Center

Loading…

Próximas Passagens (próximas 24 horas)

TLE

AtualizadoSource: Space-Track

Época: Sep 14, 2026, 11:32 UTC

1 61098U 24140NQ  26257.48118471  .00011235  00000-0  34385-2 0  9998
2 61098  89.0619 269.8068 0060758 207.8168 151.9781 14.40643926106509

Acompanhe CZ-6A DEB em tempo real com AllMySat

Download on the App Store